Preview of NWS' New Version of Forecast
This preview is not operational and should not be used for support decisions.

Regional Weather Roundup (RWR)

Issued by National Weather Service (NWS)

                            
000
ASUS43 KLSX 211557
RWRMO 

WEATHER SUMMARY FOR MISSOURI
NATIONAL WEATHER SERVICE SPRINGFIELD MO
1000 AM CST THU FEB 21 2019

NOTE: "FAIR" INDICATES FEW OR NO CLOUDS BELOW 12,000 FEET WITH NO
       SIGNIFICANT WEATHER AND/OR OBSTRUCTIONS TO VISIBILITY.
       CURRENT SKY AND/OR WEATHER CONDITIONS ARE NOT AVAILABLE FOR
       CHILLICOTHE AND FARMINGTON.

MOZ001>031-035>038-043-044-053-054-211700-
...NORTHERN AND WESTERN MISSOURI...
  
CITY           SKY/WX    TMP DP  RH WIND       PRES   REMARKS
KANSAS CTY INT CLOUDY    31  24  75 E5        30.21R HAZE    WCI  26  
LEE'S SUMMIT   CLOUDY    30  28  92 NE3       30.21S FOG              
ST JOSEPH      MOSUNNY   19  32 100 CALM      30.24R FOG              
CHILLICOTHE      N/A     30  24  78 SW3       30.26R                  
     
$$
MOZ066>068-077>081-088>096-101>105-211700-
...SOUTHWEST MISSOURI...
  
CITY           SKY/WX    TMP DP  RH WIND       PRES   REMARKS
SPRINGFIELD    SUNNY     43  20  39 E9        30.15S                  
JOPLIN         MOSUNNY   42  23  46 E9        30.15R                  
               
$$
MOZ032>034-039>042-045>050-055>058-069>072-211700-
...CENTRAL MISSOURI...  
  
CITY           SKY/WX    TMP DP  RH WIND       PRES   REMARKS
COLUMBIA       NOT AVBL                                               
JEFFERSON CITY MOSUNNY   38  30  73 CALM      30.24S                  
ROLLA          CLOUDY    38  26  62 NE7       30.21S                  
SEDALIA        MOSUNNY   34  28  79 E5        30.22R WCI  30          
WARRENSBURG    MOSUNNY   30  28  93 CALM      30.21S FOG              
               
$$
MOZ051-052-059>065-211700-
...EAST CENTRAL MISSOURI...
  
CITY           SKY/WX    TMP DP  RH WIND       PRES   REMARKS
ST LOUIS INTL  PTSUNNY   38  27  64 N6        30.25S                  
                   
$$
MOZ072>076-082>087-097>100-106>115-211700-
...SOUTH CENTRAL AND SOUTHEAST MISSOURI...
  
CITY           SKY/WX    TMP DP  RH WIND       PRES   REMARKS
CAPE GIRARDEAU FAIR      41  30  65 NE9       30.24R                  
POPLAR BLUFF   FAIR      40  33  76 NE8       30.22F                  
WEST PLAINS    SUNNY     40  26  57 NE10      30.19F                  
                                       
$$